Weather History for KCPR - January, 2012

Change the Weather History Date:

Monday, January 23, 2012

  Actual Average Record
Temperature  
Mean Temperature 29 °F 25 °F  
Max Temperature 36 °F 35 °F 59 °F (1981)
Min Temperature 21 °F 15 °F -39 °F (1949)
Degree Days  
Heating Degree Days 36 40  
Month to date heating degree days 861 925  
Since 1 July heating degree days 3761 4054  
Cooling Degree Days 0 0  
Month to date cooling degree days 0 0  
Year to date cooling degree days 0 0  
Moisture  
Dew Point 18 °F    
Average Humidity 66    
Maximum Humidity 75    
Minimum Humidity 56    
Precipitation  
Precipitation 0.00 in 0.02 in 0.10 in (1978)
Month to date precipitation 0.56 0.38  
Year to date precipitation 0.56 0.38  
Snow  
Snow 0.00 in 0.30 in - ()
Month to date snowfall 6.8 6.8  
Since 1 July snowfall 33.5 37.3  
Snow Depth -    
Sea Level Pressure  
Sea Level Pressure 29.88 in    
Wind  
Wind Speed 15 mph (SW)    
Max Wind Speed 23 mph    
Max Gust Speed 31 mph    
Visibility 10 miles    
Events      
T = Trace of Precipitation, MM = Missing Value Source: NWS Daily Summary

Daily Weather History Graph

Daily Weather History Graph

Search for Another Location

Airport or City:

Trip Planner

Search our weather history database for the weather conditions in past years. The results will help you decide how hot, cold, wet, or windy it might be!

Date:

Astronomy

Jan. 23, 2012 Rise Set
Actual Time 7:29 AM MST 5:06 PM MST
Civil Twilight 6:58 AM MST 5:37 PM MST
Nautical Twilight 6:24 AM MST 6:11 PM MST
Astronomical Twilight 5:50 AM MST 6:45 PM MST
Moon 7:24 AM MST (1/23) 5:59 PM MST (1/23)
Length of Visible Light 10h 38m
Length of Day
9h 37m
New Moon, 0% of the Moon is Illuminated
Jan 23
New Moon
Jan 30
First Quarter
Feb 7
Full
Feb 14
Last Quarter
Feb 21
New

Hourly Weather History & Observations

Time (MST) Temp. Windchill Dew Point Humidity Pressure Visibility Wind Dir Wind Speed Gust Speed Precip Events Conditions
12:53 AM 23.0 °F 8.3 °F 12.9 °F 65% 29.94 in 10.0 mi SW 19.6 mph 25.3 mph N/A   Clear
1:53 AM 21.9 °F 9.8 °F 12.0 °F 66% 29.96 in 10.0 mi West 12.7 mph - N/A   Clear
2:53 AM 21.9 °F 8.7 °F 12.0 °F 66% 29.95 in 10.0 mi SW 15.0 mph - N/A   Clear
3:53 AM 23.0 °F 9.2 °F 14.0 °F 68% 29.94 in 10.0 mi SSW 17.3 mph - N/A   Clear
4:53 AM 23.0 °F 8.7 °F 12.9 °F 65% 29.95 in 10.0 mi SW 18.4 mph - N/A   Clear
5:53 AM 23.0 °F 8.3 °F 12.9 °F 65% 29.96 in 10.0 mi SW 19.6 mph - N/A   Clear
6:53 AM 23.0 °F 8.3 °F 12.9 °F 65% 29.97 in 10.0 mi SW 19.6 mph - N/A   Clear
7:53 AM 24.1 °F 9.4 °F 14.0 °F 65% 29.96 in 10.0 mi SSW 20.7 mph - N/A   Clear
8:53 AM 27.0 °F 14.7 °F 16.0 °F 63% 29.94 in 10.0 mi SW 16.1 mph - N/A   Clear
9:53 AM 28.4 °F 18.0 °F 17.6 °F 64% 29.82 in 10.0 mi SW 12.7 mph - N/A   Clear
10:53 AM 30.2 °F 17.8 °F 19.4 °F 64% 29.83 in 10.0 mi SW 19.6 mph - N/A   Clear
11:53 AM 33.1 °F 21.5 °F 19.9 °F 59% 29.85 in 10.0 mi SW 19.6 mph - N/A   Clear
12:53 PM 33.8 °F 21.6 °F 21.2 °F 60% 29.76 in 10.0 mi SSW 23.0 mph 31.1 mph N/A   Clear
1:53 PM 34.0 °F 23.8 °F 21.9 °F 61% 29.82 in 10.0 mi SW 16.1 mph - N/A   Clear
2:53 PM 35.1 °F 25.5 °F 23.0 °F 61% 29.81 in 10.0 mi SW 15.0 mph - N/A   Clear
3:53 PM 35.1 °F 25.2 °F 21.0 °F 57% 29.81 in 10.0 mi SW 16.1 mph 27.6 mph N/A   Clear
4:53 PM 28.9 °F 18.2 °F 19.9 °F 69% 29.84 in 10.0 mi SW 13.8 mph - N/A   Clear
5:53 PM 30.0 °F 22.4 °F 19.0 °F 64% 29.85 in 10.0 mi SW 8.1 mph - N/A   Clear
6:53 PM 30.9 °F 19.1 °F 19.0 °F 61% 29.83 in 10.0 mi SSW 18.4 mph - N/A   Clear
7:53 PM 30.9 °F 21.7 °F 19.0 °F 61% 29.84 in 10.0 mi WSW 11.5 mph - N/A   Clear
8:53 PM 28.9 °F 19.8 °F 19.0 °F 67% 29.84 in 10.0 mi WSW 10.4 mph - N/A   Partly Cloudy
9:53 PM 27.0 °F 19.5 °F 19.0 °F 72% 29.86 in 10.0 mi West 6.9 mph - N/A   Mostly Cloudy
10:53 PM 30.0 °F 23.2 °F 21.0 °F 69% 29.86 in 10.0 mi West 6.9 mph - N/A   Overcast
11:53 PM 32.0 °F 26.4 °F 21.9 °F 66% 29.85 in 10.0 mi WNW 5.8 mph - N/A   Overcast